User: anonymous   Login
Location: Fremont
(37.5480°N, 121.9880°W)
Time: 12:40:28
(UTC-07:00)
Language:

Cosmos 1844 Rocket - Orbit

View from above orbital plane
View from above orbital plane
View from above satellite
View from above satellite

Ground track
Ground track

The orbit data is extracted from the following two-line orbital elements,

1 17974U 87041B   14297.84136171 -.00000100  00000-0 -26067-4 0  2443
2 17974 071.0073 145.7111 0011961 063.5028 019.6162 14.17124174419775
Epoch (UTC): 24 October 2014 20:11:33
Eccentricity: 0.0011961
inclination: 71.0073°
perigee height: 826 km
apogee height: 844 km
right ascension of ascending node: 145.7111°
argument of perigee: 63.5028°
revolutions per day: 14.17124174
mean anomaly at epoch: 19.6162°
orbit number at epoch: 41977

The dashed part of the orbit path shows where the satellite is in the earth's shadow,  

DLR